Miscellaneous Local Product
Issued by NWS North Platte, NE

Home | Current Version | Previous Version | Text Only | Print | Product List | Glossary On
Versions: 1 2 3 4 5 6 7 8 9 10 11 12 13 14 15 16 17 18 19 20 21 22 23 24 25 26 27 28 29 30 31 32 33 34 35 36 37 38 39 40 41 42 43 44 45 46 47 48 49 50
000
AXUS43 KLBF 231610
MISLBF


WESTERN AND NORTH CENTRAL NEBRASKA HOURLY WEATHER ROUNDUP
NATIONAL WEATHER SERVICE NORTH PLATTE NE
1000 AM CST FRI JAN 23 2015

***STATIONS NOT REPORTING VARIABLES SUCH AS SKY/WEATHER OR
PRESSURE ARE PROVIDED BY THE NEBRASKA DEPARTMENT OF
ROADS...RAWS...AND APRS NETWORKS...AND ARE NOT UNDER
NATIONAL WEATHER SERVICE QUALITY CONTROL***

...OBSERVATIONS IN AND NEAR THE EASTERN PANHANDLE OF NEBRASKA...

CITY           SKY/WX    TMP DP  RH WIND       PRES   REMARKS
PINE RIDGE     PTSUNNY   30  19  63 CALM      30.13S
CHADRON        PTSUNNY   35  21  56 NW13G18   30.16R WCI  26
ALLIANCE       MOSUNNY   35  23  61 NW14      30.11R WCI  26
SIDNEY         MOSUNNY   37  17  44 NW17      30.13R WCI  27
$$

...OBSERVATIONS IN NORTH CENTRAL NEBRASKA...

CITY           SKY/WX    TMP DP  RH WIND       PRES   REMARKS
VALENTINE      CLOUDY    39  25  57 NW18G24   30.05R WCI  30
THEDFORD       CLOUDY    37  25  62 NW9       30.07R WCI  30
AINSWORTH      PTSUNNY   37  24  59 NW14      30.03S WCI  28
O`NEILL        CLOUDY    38  24  57 NW15      30.02R WCI  29
ORD            MOSUNNY   33  22  63 NW10      30.03S WCI  25
BROKEN BOW     PTSUNNY   39  21  48 NW15      30.04S WCI  31
$$

...OBSERVATIONS IN SOUTHWEST NEBRASKA AND FAR NORTHEAST COLORADO...

CITY           SKY/WX    TMP DP  RH WIND       PRES   REMARKS
WRAY           FAIR      34  23  64 W12       30.12S WCI  25
HOLYOKE        FAIR      37  21  52 NW15      30.12R WCI  28
IMPERIAL       MOSUNNY   35  20  54 NW16      30.10R WCI  25
OGALLALA       MOSUNNY   34  22  61 NW18G24   30.10R WCI  23
NORTH PLATTE   PTSUNNY   29  21  72 NW10      30.09R WCI  20
MCCOOK         SUNNY     29  19  66 W14       30.09S WCI  18
LEXINGTON      SUNNY     27  21  79 NW15      30.07R WCI  15
$$

...NORTH PLATTE AREA...

CITY           SKY/WX    TMP DP  RH WIND       PRES   REMARKS
AIRPORT        PTSUNNY   29  21  72 NW10      30.09R WCI  20
$$

...SOME WEATHER OBSERVATIONS FROM AROUND THE REGION...

CITY           SKY/WX    TMP DP  RH WIND       PRES   REMARKS
DENVER         PTSUNNY   32  14  47 SW8       30.19R WCI  25
LARAMIE        PTSUNNY   20   9  62 CALM      30.22R
CHEYENNE       PTSUNNY   36   8  31 NW16G28   30.17S WCI  26
SCOTTSBLUFF    MOSUNNY   33  21  61 NW15      30.16R WCI  23
RAPID CITY     PTSUNNY   44  26  49 N18       30.10R
PIERRE         CLOUDY    38  27  64 W12       30.03R WCI  30
WINNER         FAIR      41  25  53 NW17G26   30.03R
SIOUX FALLS    PTSUNNY   31  23  72 W9        29.96F WCI  23
OMAHA          MOSUNNY   28  22  78 S13       30.08F WCI  17
GRAND ISLAND   MOSUNNY   29  20  69 W10       30.06R WCI  20
KANSAS CITY    SUNNY     30  25  81 SW10      30.20S WCI  21
WICHITA        SUNNY     34  27  75 S12       30.22S WCI  25
HAYS           SUNNY     27  14  59 W12       30.14R WCI  16
LIBERAL        SUNNY     27  19  74 NW12      30.20S WCI  16
GOODLAND       MOSUNNY   34  20  56 NW16      30.11F WCI  24
$$



USA.gov is the U.S. government's official web portal to all federal, state and local government web resources and services.